FW2784 Weather Reports


Display with metric or nautical units.
time (UTC)temp
F
wind
direction
speed
MPH
gust
MPH
rain 1hr
in
rain 24hr
in
rain mn
in
humidity
%
barometer
mb
20260502194000 67 210 7.0 18.0 0.00 0.05 0.02 39 1015.8
20260502193500 68 236 6.0 18.0 0.00 0.05 0.02 38 1015.8
20260502192459 68 15 5.0 16.0 0.00 0.05 0.02 40 1015.9
20260502191000 68 179 4.0 10.0 0.00 0.05 0.02 39 1015.8
20260502190459 68 153 4.0 11.0 0.00 0.05 0.02 40 1015.9
20260502190000 67 203 5.0 11.0 0.00 0.05 0.02 39 1015.9
20260502185500 67 198 5.0 11.0 0.00 0.05 0.02 41 1016.0
20260502185000 67 196 6.0 15.0 0.00 0.05 0.02 40 1016.0
20260502183500 66 175 6.0 13.0 0.00 0.05 0.02 40 1016.1
20260502182959 66 5 7.0 16.0 0.00 0.05 0.02 39 1016.2
20260502182459 66 184 7.0 16.0 0.00 0.05 0.02 42 1016.3
20260502181500 66 224 6.0 14.0 0.00 0.05 0.02 41 1016.1
20260502181001 66 155 5.0 12.0 0.00 0.05 0.02 42 1016.2
20260502180500 65 191 6.0 15.0 0.00 0.05 0.02 45 1016.3
20260502164000 60 209 6.0 16.0 0.00 0.05 0.02 55 1016.7
20260502163501 61 240 6.0 12.0 0.00 0.05 0.02 55 1016.7
20260502163001 61 184 5.0 10.0 0.00 0.05 0.02 56 1016.8
20260502162001 61 200 5.0 9.0 0.00 0.05 0.02 57 1016.7
20260502161501 60 181 5.0 10.0 0.00 0.05 0.02 57 1016.6
20260502161001 60 268 5.0 10.0 0.00 0.05 0.02 58 1016.6
20260502151501 58 158 4.0 8.0 0.00 0.05 0.02 65 1016.3
20260502151001 57 236 4.0 10.0 0.00 0.05 0.02 67 1016.2
20260502130459 52 202 3.0 5.0 0.00 0.05 0.02 87 1014.9
20260502123500 51 221 2.0 6.0 0.00 0.05 0.02 89 1014.7
20260502122500 51 220 2.0 5.0 0.00 0.05 0.02 91 1014.8
20260502122000 51 215 1.0 4.0 0.00 0.05 0.02 92 1014.7
20260502121459 51 215 1.0 2.0 0.00 0.05 0.02 92 1014.6
20260502120500 51 215 0.0 2.0 0.00 0.05 0.02 92 1014.4
20260502115500 51 344 0.0 1.0 0.00 0.05 0.02 93 1014.3
20260502114959 51 340 0.0 1.0 0.00 0.05 0.02 93 1014.3
20260502113959 51 231 0.0 1.0 0.00 0.05 0.02 93 1014.2
20260502113459 51 231 0.0 1.0 0.00 0.05 0.02 93 1014.2
20260502112959 52 231 0.0 1.0 0.00 0.05 0.02 93 1014.2
20260502112459 52 239 0.0 1.0 0.00 0.05 0.02 93 1014.2
20260502111959 52 236 0.0 1.0 0.00 0.05 0.02 93 1014.4
20260502111000 52 236 1.0 2.0 0.00 0.05 0.02 93 1014.3
20260502110001 52 191 1.0 2.0 0.00 0.05 0.02 93 1014.1
20260502105459 52 191 1.0 3.0 0.00 0.05 0.02 93 1014.1
20260502104500 52 118 0.0 3.0 0.00 0.05 0.02 93 1013.9
20260502104000 52 230 0.0 0.0 0.00 0.05 0.02 93 1013.5
20260502103500 52 230 0.0 1.0 0.00 0.05 0.02 93 1014.2
20260502102959 52 230 0.0 1.0 0.00 0.05 0.02 93 1014.2
20260502102500 52 230 0.0 0.0 0.00 0.05 0.02 93 1013.6
20260502101959 52 230 1.0 2.0 0.00 0.05 0.02 93 1013.9
20260502101001 53 230 0.0 3.0 0.00 0.05 0.02 93 1014.4
20260502091500 54 230 0.0 0.0 0.01 0.05 0.02 93 1013.8
20260502090959 54 230 0.0 0.0 0.01 0.05 0.02 93 1014.3
20260502090500 54 230 0.0 1.0 0.01 0.05 0.02 93 1014.2
20260502071459 55 243 1.0 2.0 0.00 0.03 0.00 93 1014.1
20260502070959 55 243 1.0 3.0 0.00 0.03 0.00 93 1014.1
20260502070500 55 243 1.0 3.0 0.00 0.03 0.00 93 1014.5
20260502070001 56 243 1.0 2.0 0.00 0.03 0.00 93 1014.5
20260502065459 56 243 1.0 3.0 0.00 0.03 0.00 93 1014.5
20260502064959 56 243 0.0 3.0 0.00 0.03 0.00 94 1014.5
20260502064459 56 243 0.0 1.0 0.00 0.03 0.00 94 1014.7
20260502063959 56 243 0.0 1.0 0.00 0.03 0.00 93 1014.6
20260502063459 55 243 0.0 0.0 0.00 0.03 0.00 93 1014.5
20260502062959 55 243 1.0 1.0 0.00 0.03 0.00 93 1014.5
20260502061959 55 243 0.0 2.0 0.00 0.03 0.00 93 1014.4
20260502061000 55 243 0.0 1.0 0.00 0.03 0.00 93 1014.6
20260502060500 55 243 0.0 1.0 0.00 0.03 0.00 93 1014.6
20260502060001 56 243 0.0 1.0 0.00 0.03 0.00 93 1014.4
20260502055500 55 243 0.0 1.0 0.00 0.03 0.00 93 1014.5
20260502055000 56 243 0.0 0.0 0.00 0.03 0.00 93 1014.6
20260502054500 56 243 0.0 1.0 0.00 0.03 0.00 93 1014.4
20260502054000 56 243 0.0 1.0 0.00 0.03 0.00 93 1014.2
20260502053500 56 243 0.0 2.0 0.00 0.03 0.00 93 1014.3
20260502053000 56 243 1.0 2.0 0.00 0.03 0.00 93 1014.5
20260502052500 56 243 0.0 2.0 0.00 0.03 0.00 93 1014.4
20260502052001 56 243 0.0 1.0 0.00 0.03 0.00 93 1014.4
20260502051500 56 243 0.0 2.0 0.00 0.03 0.00 93 1014.4
20260502051000 56 243 1.0 3.0 0.00 0.03 0.00 92 1014.4
20260502050500 56 243 1.0 3.0 0.00 0.03 0.00 92 1014.3
20260502045501 56 243 1.0 3.0 0.00 0.03 0.03 93 1014.6
20260502045002 55 243 1.0 3.0 0.00 0.03 0.03 93 1014.5
20260502044501 55 243 1.0 2.0 0.00 0.03 0.03 93 1014.5
20260502044001 55 243 0.0 1.0 0.00 0.03 0.03 92 1014.4
20260502043501 55 243 0.0 0.0 0.00 0.03 0.03 92 1014.2
20260502043001 55 243 0.0 0.0 0.00 0.03 0.03 92 1014.2
20260502042501 55 243 0.0 0.0 0.00 0.03 0.03 92 1014.1
20260502042001 55 243 0.0 0.0 0.00 0.03 0.03 92 1014.2
20260502041501 55 243 0.0 0.0 0.00 0.03 0.03 92 1014.1
20260502041001 55 243 0.0 0.0 0.00 0.03 0.03 91 1014.1
20260502040501 55 243 0.0 0.0 0.00 0.03 0.03 91 1014.0
20260502040004 55 243 0.0 0.0 0.00 0.03 0.03 91 1014.0
20260502035501 55 243 0.0 0.0 0.00 0.03 0.03 91 1014.2
20260502035001 55 243 0.0 0.0 0.00 0.03 0.03 91 1014.2
20260502034501 55 243 0.0 0.0 0.00 0.03 0.03 91 1014.2
20260502034001 55 243 0.0 0.0 0.00 0.03 0.03 91 1014.2
20260502033502 56 243 0.0 0.0 0.00 0.03 0.03 91 1014.4
20260502033001 56 243 0.0 0.0 0.00 0.03 0.03 91 1014.4
20260502032502 56 243 1.0 2.0 0.00 0.03 0.03 91 1014.6
20260502032003 56 243 1.0 2.0 0.00 0.03 0.03 91 1014.6
20260502031501 56 243 0.0 2.0 0.00 0.03 0.03 91 1014.7
20260502030501 56 243 1.0 1.0 0.00 0.03 0.03 91 1014.8
20260502030004 56 243 1.0 2.0 0.01 0.03 0.03 90 1014.8
20260502025002 57 243 0.0 1.0 0.01 0.03 0.03 90 1014.7
20260502024502 57 243 0.0 1.0 0.01 0.03 0.03 90 1014.8
20260502024001 57 243 0.0 1.0 0.01 0.03 0.03 89 1014.8
20260502023502 57 243 0.0 1.0 0.02 0.03 0.03 89 1014.7
20260502023001 57 243 1.0 2.0 0.02 0.03 0.03 89 1014.9
20260502022502 57 243 1.0 2.0 0.03 0.03 0.03 89 1015.2
20260502022004 58 243 0.0 2.0 0.03 0.03 0.03 89 1015.2
20260502021502 58 243 0.0 0.0 0.03 0.03 0.03 88 1015.2
20260502020501 58 243 0.0 0.0 0.03 0.03 0.03 88 1015.2
20260502020002 58 243 0.0 1.0 0.02 0.02 0.02 88 1015.2
20260502015500 59 243 0.0 1.0 0.02 0.02 0.02 88 1015.2
20260502014500 59 243 0.0 1.0 0.02 0.02 0.02 87 1015.0
20260502014000 59 243 0.0 1.0 0.02 0.02 0.02 87 1015.0
20260502013500 59 243 0.0 1.0 0.01 0.01 0.01 86 1015.0
20260502013000 59 243 0.0 1.0 0.01 0.01 0.01 86 1015.0
20260502011500 58 243 0.0 0.0 0.00 0.00 0.00 84 1014.8
20260502011000 59 243 0.0 0.0 0.00 0.00 0.00 83 1014.6
20260502010501 58 243 0.0 0.0 0.00 0.00 0.00 83 1014.5
20260502005500 59 243 0.0 0.0 0.00 0.00 0.00 82 1014.2
20260502005000 59 243 0.0 0.0 0.00 0.00 0.00 81 1014.1
20260502004000 59 243 0.0 0.0 0.00 0.00 0.00 80 1014.0
20260502003500 59 243 0.0 0.0 0.00 0.00 0.00 81 1014.1
20260502002459 59 243 0.0 1.0 0.00 0.00 0.00 80 1014.1
20260502002002 59 243 0.0 1.0 0.00 0.00 0.00 80 1014.1
20260502001500 60 243 0.0 0.0 0.00 0.00 0.00 81 1014.1
20260502001000 60 243 0.0 1.0 0.00 0.00 0.00 80 1013.8
20260502000500 60 243 0.0 1.0 0.00 0.00 0.00 80 1013.9
20260502000004 60 243 0.0 0.0 0.00 0.00 0.00 80 1013.9
20260501235501 60 243 0.0 2.0 0.00 0.00 0.00 79 1013.8
20260501235002 60 243 1.0 2.0 0.00 0.00 0.00 78 1013.7
20260501234501 60 232 1.0 3.0 0.00 0.00 0.00 78 1013.6
20260501234001 61 232 1.0 3.0 0.00 0.00 0.00 77 1013.6
20260501233501 61 232 1.0 2.0 0.00 0.00 0.00 76 1013.7
20260501233001 61 232 1.0 3.0 0.00 0.00 0.00 76 1013.7
20260501232001 61 232 1.0 3.0 0.00 0.00 0.00 75 1013.7
20260501231501 61 232 1.0 3.0 0.00 0.00 0.00 74 1013.7
20260501231001 61 232 1.0 2.0 0.00 0.00 0.00 74 1013.6
20260501230502 62 232 1.0 2.0 0.00 0.00 0.00 73 1013.7
20260501230003 62 219 1.0 3.0 0.00 0.00 0.00 75 1013.6
20260501225459 62 219 0.0 3.0 0.00 0.00 0.00 75 1013.6
20260501225000 62 219 0.0 0.0 0.00 0.00 0.00 74 1013.6
20260501224500 62 219 1.0 3.0 0.00 0.00 0.00 74 1013.6
20260501224000 63 219 1.0 4.0 0.00 0.00 0.00 72 1013.6
20260501223500 63 219 1.0 4.0 0.00 0.00 0.00 70 1013.7
20260501223000 63 220 1.0 4.0 0.00 0.00 0.00 70 1013.8
20260501222000 63 255 1.0 2.0 0.00 0.00 0.00 71 1013.9
20260501221500 63 255 1.0 2.0 0.00 0.00 0.00 72 1013.9
20260501221000 63 255 1.0 3.0 0.00 0.00 0.00 70 1013.8
20260501220500 63 255 1.0 3.0 0.00 0.00 0.00 70 1013.7
20260501220000 64 255 1.0 3.0 0.00 0.00 0.00 69 1013.6
20260501215501 64 209 1.0 3.0 0.00 0.00 0.00 70 1013.6
20260501215000 64 209 1.0 3.0 0.00 0.00 0.00 68 1013.5
20260501214000 64 238 2.0 4.0 0.00 0.00 0.00 67 1013.2
20260501213500 64 233 2.0 7.0 0.00 0.00 0.00 65 1013.1
20260501212959 64 252 2.0 7.0 0.00 0.00 0.00 65 1013.1
20260501212459 64 252 1.0 4.0 0.00 0.00 0.00 64 1013.2
20260501212000 65 168 1.0 5.0 0.00 0.00 0.00 64 1013.2
20260501211500 64 153 1.0 4.0 0.00 0.00 0.00 66 1013.0
20260501211000 64 252 1.0 3.0 0.00 0.00 0.00 63 1013.1
20260501210500 64 184 1.0 3.0 0.00 0.00 0.00 62 1013.2
20260501210000 64 250 2.0 5.0 0.00 0.00 0.00 64 1013.2
20260501205459 64 220 3.0 5.0 0.00 0.00 0.00 63 1013.5
20260501205001 64 205 2.0 7.0 0.00 0.00 0.00 62 1013.8
20260501204459 64 180 3.0 7.0 0.00 0.00 0.00 62 1014.0
20260501204000 65 282 3.0 6.0 0.00 0.00 0.00 60 1014.1
20260501203500 65 202 3.0 6.0 0.00 0.00 0.00 61 1014.2
20260501203000 65 226 3.0 6.0 0.00 0.00 0.00 59 1014.1
20260501202459 65 218 4.0 7.0 0.00 0.00 0.00 59 1014.4
20260501202001 65 167 4.0 10.0 0.00 0.00 0.00 57 1014.3
20260501201000 66 200 3.0 11.0 0.00 0.00 0.00 58 1014.5
20260501200500 67 193 2.0 7.0 0.00 0.00 0.00 58 1014.7
20260501200004 67 204 2.0 7.0 0.00 0.00 0.00 58 1014.8
20260501195501 66 192 3.0 7.0 0.00 0.00 0.00 58 1014.8